Abilene, TX

6:29 PM CST on February 23, 2017 (GMT -0600)
Abilene Regional

Weather History for KABI - November, 2013

Change the Weather History Date:

Friday, November 15, 2013

  Actual Average Record
Temperature  
Mean Temperature 61 °F 55 °F  
Max Temperature 77 °F 67 °F 85 °F (1955)
Min Temperature 44 °F 43 °F 20 °F (1916)
Degree Days  
Heating Degree Days 4 11  
Month to date heating degree days 145 123  
Since 1 July heating degree days 224 227  
Cooling Degree Days 0 0  
Month to date cooling degree days 3 15  
Year to date cooling degree days 2712 2404  
Growing Degree Days 10 (Base 50)    
Moisture  
Dew Point 43 °F    
Average Humidity 56    
Maximum Humidity 83    
Minimum Humidity 29    
Precipitation  
Precipitation 0.00 in 0.04 in 1.39 in (2004)
Month to date precipitation 0.02 0.82  
Year to date precipitation 20.93 23.00  
Sea Level Pressure  
Sea Level Pressure 29.85 in    
Wind  
Wind Speed 10 mph (SSW)    
Max Wind Speed 18 mph    
Max Gust Speed 26 mph    
Visibility 10 miles    
Events      
T = Trace of Precipitation, MM = Missing Value Source: NWS Daily Summary

Daily Weather History Graph

Daily Weather History Graph

Search for Another Location

Airport or City:

Trip Planner

Search our weather history database for the weather conditions in past years. The results will help you decide how hot, cold, wet, or windy it might be!

Date:

Astronomy

Nov. 15, 2013 Rise Set
Actual Time 7:08 AM CST 5:37 PM CST
Civil Twilight 6:42 AM CST 6:04 PM CST
Nautical Twilight 6:12 AM CST 6:33 PM CST
Astronomical Twilight 5:43 AM CST 7:02 PM CST
Moon 4:31 PM CST (11/15) 5:12 AM CST (11/15)
Length of Visible Light 11h 21m
Length of Day
10h 29m
Waxing Gibbous, 96% of the Moon is Illuminated
Nov 15
Waxing Gibbous
Nov 17
Full
Nov 25
Last Quarter
Dec 2
New
Dec 9
First Quarter

Hourly Weather History & Observations

Time (CST) Temp. Windchill Dew Point Humidity Pressure Visibility Wind Dir Wind Speed Gust Speed Precip Events Conditions
12:52 AM 50.0 °F - 36.0 °F 59% 29.93 in 10.0 mi South 8.1 mph 17.3 mph N/A   Clear
1:52 AM 50.0 °F - 37.9 °F 63% 29.93 in 10.0 mi SW 10.4 mph 20.7 mph N/A   Clear
2:52 AM 48.9 °F - 37.9 °F 66% 29.91 in 10.0 mi SSW 11.5 mph 19.6 mph N/A   Clear
3:52 AM 48.9 °F - 39.0 °F 69% 29.90 in 10.0 mi SSW 13.8 mph - N/A   Clear
4:52 AM 48.0 °F - 39.9 °F 74% 29.91 in 10.0 mi SW 15.0 mph - N/A   Clear
5:52 AM 46.9 °F - 39.9 °F 77% 29.91 in 10.0 mi SSW 5.8 mph - N/A   Clear
6:52 AM 45.0 °F 40.6 °F 39.0 °F 80% 29.94 in 10.0 mi SW 8.1 mph - N/A   Clear
7:52 AM 46.0 °F 42.5 °F 39.9 °F 79% 29.93 in 10.0 mi SW 6.9 mph - N/A   Clear
8:52 AM 52.0 °F - 42.1 °F 69% 29.94 in 10.0 mi SW 10.4 mph - N/A   Clear
9:52 AM 57.9 °F - 43.0 °F 58% 29.95 in 10.0 mi WSW 9.2 mph - N/A   Clear
10:52 AM 62.1 °F - 44.1 °F 52% 29.94 in 10.0 mi South 6.9 mph - N/A   Clear
11:52 AM 68.0 °F - 42.1 °F 39% 29.91 in 10.0 mi SW 4.6 mph - N/A   Clear
12:52 PM 73.9 °F - 39.9 °F 29% 29.85 in 10.0 mi SSW 9.2 mph - N/A   Clear
1:52 PM 73.9 °F - 44.1 °F 34% 29.82 in 10.0 mi South 11.5 mph - N/A   Clear
2:52 PM 75.9 °F - 41.0 °F 29% 29.79 in 10.0 mi SSW 11.5 mph - N/A   Clear
3:52 PM 77.0 °F - 42.1 °F 29% 29.77 in 10.0 mi South 12.7 mph 21.9 mph N/A   Clear
4:52 PM 75.0 °F - 43.0 °F 32% 29.76 in 10.0 mi South 10.4 mph 19.6 mph N/A   Clear
5:52 PM 69.1 °F - 44.1 °F 40% 29.76 in 10.0 mi SSE 10.4 mph - N/A   Clear
6:52 PM 66.9 °F - 46.0 °F 47% 29.78 in 10.0 mi SSE 10.4 mph - N/A   Clear
7:52 PM 66.0 °F - 46.9 °F 50% 29.78 in 10.0 mi SSE 10.4 mph - N/A   Clear
8:52 PM 68.0 °F - 46.9 °F 47% 29.78 in 10.0 mi South 11.5 mph - N/A   Clear
9:52 PM 66.9 °F - 48.0 °F 51% 29.78 in 10.0 mi South 15.0 mph - N/A   Clear
10:52 PM 64.9 °F - 46.9 °F 52% 29.78 in 10.0 mi South 12.7 mph - N/A   Clear
11:52 PM 64.0 °F - 48.0 °F 56% 29.78 in 10.0 mi South 13.8 mph - N/A   Clear